Showing default

IHOPSAT-TD, 44859

Orbit data source: Space-Track

IHOPSAT-TD, 44859 is a payload satellite owned by Hera Systems (US) in LEO that was launched on Wed, 11 Dec 2019 UTC via a PSLV-QL launch vehicle from the Sirharikota (SRI). Payload-class satellites include a variety of spacecraft equipped with specific instruments for various scientific and technological missions. These include communications satellites like Starlink; space stations such as the ISS; scientific satellites like the Hubble; Earth observation satellites from companies like Planet Labs, Umbra, and HawkEye 360; GPS; miniature CubeSats for education and research; and military/defense satellites.

Loading next visibility...
Identifier
44859, 2019-089H
Orbit
LEO
Country
Flag of USUS
Related business
Manufacturer
Hera Systems
Mission
Operational Commercial Imaging
Bus & Motor
CUBESAT 12U, Unknown motor
Mass
22 kg wet, 22 kg dry
Launch date (UTC)
2019-12-11 (7 years ago)
Launch vehicle
PSLV-QL
Launch site
Sirharikota (SRI)
Object type
Payload
Rocket body
Debris
Shape & HBR
Box, 0.2 m
Radar Cross Section
0.080 m², Medium (>0.1 m² and < 1m²)

Expand to show TLE details & history
Last TLE update: 16 hours ago

TLE from 16 hours ago
0 IHOPSAT-TD
1 44859U 19089H   26263.10873144  .00001911  00000-0  11332-3 0  9999
2 44859  36.9661 186.0663 0006178 296.7882  63.2232 15.12239735372364
Epoch: 2026-09-20T02:36Z
TLE epoch observation values (Epoch: 2026-09-20T02:36:34.396Z)
Latitude
0.00001°
Longitude
147.91536°
Altitude
526.571 km
Speed
7.603 km/s
True Right ascension
12h 24m 15s
True Declination
0° 00' 00"
Sunlit
Object was in daylight at epoch
Visualization orbit readout
Latitude
Unknown
Longitude
Unknown
Altitude
Unknown
Speed
Unknown
Apparent Right ascension
Unknown
Apparent Declination
Unknown
Sunlit
N/A
Visualization observer readout
Local Sidereal Time
11:36:40
Azimuth
Unknown
Elevation
Unknown
Doppler factor
Unknown
Orbital elements
Apogee altitude
536.563 km
Perigee altitude
528.025 km
Semi-major axis
6,910.431 km
Eccentricity
0.00062
Inclination
36.9661°
RAAN
186.0663°
Arg. of periapsis
296.7882°
True anomaly
63.28643°
Mean anomaly
63.2232°
Eccentric anomaly
63.25481°
Mean motion
3.7782 °/min
Orbital period
95.28 mins
BSTAR
0.00011332
Loading maneuver chart data...
Computing Atmospheric mass density...
Loading historical data...
Loading historical data...
Loading historical data...
Loading historical data...
Loading historical data...
Loading historical data...
Loading historical data...

Documentation

Showing up to 5 results
|